When you browse on this site, cookies collect data to enhance your experience and personalize the content and advertising you see.
Visit our Privacy Policy to learn more. By continuing to use the site, you agree to this use of cookies and data.
  • In Portugal
  • List of Countries
  • For 7 days
  • Water Temperature
  • Satellite Maps
  • Weather Map
  • Weather Widgets
  • user-avatar
    Login

    Hourly Weather Wilczyn

    Today, 24 April, Wednesday

    Time Temperature Precipitation Wind Pressure Humidity
    00:00 +11°C° 0 mm 7 mps 751 mmHg 56%
    01:00 +10°C° 0 mm 7 mps 751 mmHg 58%
    02:00 +10°C° 0 mm 7 mps 751 mmHg 60%
    03:00 +9°C° 0 mm 6 mps 751 mmHg 61%
    04:00 +9°C° 0 mm 6 mps 750 mmHg 63%
    05:00 +9°C° 0 mm 7 mps 751 mmHg 64%
    06:00 +10°C° 0 mm 7 mps 751 mmHg 65%
    07:00 +10°C° 0 mm 7 mps 751 mmHg 67%
    08:00 +12°C° 0 mm 8 mps 751 mmHg 64%
    09:00 +15°C° 0 mm 8 mps 750 mmHg 61%
    10:00 +16°C° 0 mm 8 mps 750 mmHg 58%
    11:00 +17°C° 0 mm 7 mps 750 mmHg 57%
    12:00 +18°C° 0 mm 7 mps 750 mmHg 57%
    13:00 +20°C° 0 mm 6 mps 750 mmHg 56%
    14:00 +19°C° 0 mm 6 mps 750 mmHg 58%
    15:00 +19°C° 0 mm 5 mps 750 mmHg 61%
    16:00 +19°C° 0 mm 5 mps 750 mmHg 63%
    17:00 +17°C° 0 mm 5 mps 750 mmHg 63%
    18:00 +17°C° 0 mm 5 mps 750 mmHg 63%
    19:00 +17°C° 0 mm 5 mps 749 mmHg 63%
    20:00 +16°C° 0 mm 5 mps 750 mmHg 66%
    21:00 +16°C° 0 mm 5 mps 750 mmHg 68%
    22:00 +15°C° 0 mm 5 mps 750 mmHg 71%
    23:00 +14°C° 0 mm 5 mps 750 mmHg 74%

    Tomorrow, 25 April, Thursday

    Time Temperature Precipitation Wind Pressure Humidity
    00:00 +13°C° 0 mm 5 mps 750 mmHg 77%
    01:00 +12°C° 0 mm 4 mps 750 mmHg 80%
    02:00 +12°C° 0 mm 4 mps 750 mmHg 80%
    03:00 +12°C° 0 mm 4 mps 750 mmHg 79%
    04:00 +12°C° 0 mm 4 mps 750 mmHg 79%
    05:00 +13°C° 0 mm 4 mps 750 mmHg 77%
    06:00 +14°C° 0 mm 5 mps 750 mmHg 75%
    07:00 +15°C° 0 mm 5 mps 750 mmHg 73%
    08:00 +17°C° 0 mm 5 mps 750 mmHg 68%
    09:00 +20°C° 0 mm 5 mps 750 mmHg 63%
    10:00 +21°C° 0 mm 5 mps 750 mmHg 58%
    11:00 +22°C° 0 mm 5 mps 750 mmHg 57%
    12:00 +22°C° 0 mm 5 mps 750 mmHg 55%
    13:00 +22°C° 0 mm 5 mps 750 mmHg 54%
    14:00 +22°C° 0 mm 4 mps 750 mmHg 54%
    15:00 +22°C° 0 mm 4 mps 750 mmHg 54%
    16:00 +22°C° 0 mm 3 mps 749 mmHg 55%
    17:00 +21°C° 0 mm 2 mps 749 mmHg 60%
    18:00 +19°C° 0 mm 2 mps 749 mmHg 66%
    19:00 +19°C° 0 mm 1 mps 749 mmHg 71%
    20:00 +18°C° 0 mm 1 mps 749 mmHg 74%
    21:00 +16°C° 0 mm 1 mps 749 mmHg 77%
    22:00 +15°C° 0 mm 2 mps 750 mmHg 81%
    23:00 +15°C° 0 mm 2 mps 749 mmHg 83%

    Day after tomorrow, 26 April, Friday

    Time Temperature Precipitation Wind Pressure Humidity
    00:00 +14°C° 0 mm 2 mps 749 mmHg 85%
    01:00 +14°C° 0 mm 2 mps 749 mmHg 88%
    02:00 +14°C° 0 mm 2 mps 749 mmHg 89%
    03:00 +14°C° 0 mm 2 mps 749 mmHg 90%
    04:00 +13°C° 0 mm 2 mps 749 mmHg 91%
    05:00 +15°C° 0 mm 2 mps 749 mmHg 85%
    06:00 +16°C° 0 mm 2 mps 748 mmHg 79%
    07:00 +17°C° 0 mm 3 mps 748 mmHg 73%
    08:00 +19°C° 0 mm 2 mps 748 mmHg 67%
    09:00 +21°C° 0 mm 2 mps 748 mmHg 61%
    10:00 +23°C° 0 mm 2 mps 748 mmHg 55%
    11:00 +24°C° 0 mm 3 mps 748 mmHg 52%
    12:00 +25°C° 0 mm 3 mps 747 mmHg 49%
    13:00 +26°C° 0 mm 3 mps 747 mmHg 46%
    14:00 +26°C° 0 mm 3 mps 747 mmHg 47%
    15:00 +25°C° 0 mm 2 mps 746 mmHg 49%
    16:00 +25°C° 0 mm 2 mps 746 mmHg 50%
    17:00 +23°C° 0 mm 1 mps 746 mmHg 54%
    18:00 +22°C° 0 mm 1 mps 746 mmHg 58%
    19:00 +18°C° 0 mm 0 mps 746 mmHg 62%
    20:00 +18°C° 0 mm 0 mps 746 mmHg 63%
    21:00 +19°C° 0 mm 1 mps 746 mmHg 65%
    22:00 +19°C° 0 mm 1 mps 746 mmHg 66%
    23:00 +18°C° 0 mm 1 mps 746 mmHg 69%

    27 April, Saturday

    Time Temperature Precipitation Wind Pressure Humidity
    00:00 +18°C° 0 mm 1 mps 746 mmHg 72%
    01:00 +16°C° 0 mm 1 mps 745 mmHg 75%
    02:00 +16°C° 0 mm 1 mps 745 mmHg 77%
    03:00 +15°C° 0 mm 1 mps 745 mmHg 79%
    04:00 +15°C° 0 mm 1 mps 745 mmHg 82%
    05:00 +16°C° 0 mm 1 mps 745 mmHg 80%
    06:00 +16°C° 0 mm 1 mps 745 mmHg 78%
    07:00 +17°C° 0 mm 2 mps 745 mmHg 76%
    08:00 +19°C° 0 mm 2 mps 745 mmHg 73%
    09:00 +20°C° 0 mm 3 mps 745 mmHg 69%
    10:00 +21°C° 0 mm 4 mps 745 mmHg 66%
    11:00 +20°C° 0.1 mm 5 mps 745 mmHg 69%
    12:00 +19°C° 0.1 mm 5 mps 745 mmHg 72%
    13:00 +19°C° 0.1 mm 6 mps 745 mmHg 75%
    14:00 +17°C° 0 mm 6 mps 746 mmHg 76%
    15:00 +16°C° 0 mm 6 mps 746 mmHg 76%
    16:00 +16°C° 0 mm 7 mps 746 mmHg 76%
    17:00 +15°C° 0 mm 6 mps 747 mmHg 77%
    18:00 +13°C° 0 mm 6 mps 747 mmHg 78%
    19:00 +11°C° 0 mm 6 mps 747 mmHg 79%
    20:00 +10°C° 0 mm 6 mps 748 mmHg 80%
    21:00 +9°C° 0 mm 5 mps 748 mmHg 82%
    22:00 +8°C° 0 mm 5 mps 749 mmHg 83%
    23:00 +8°C° 0 mm 5 mps 749 mmHg 82%

    28 April, Sunday

    Time Temperature Precipitation Wind Pressure Humidity
    00:00 +8°C° 0 mm 5 mps 749 mmHg 81%
    01:00 +9°C° 0 mm 5 mps 750 mmHg 80%
    02:00 +8°C° 0 mm 5 mps 750 mmHg 81%
    03:00 +8°C° 0 mm 5 mps 750 mmHg 82%
    04:00 +8°C° 0 mm 5 mps 750 mmHg 83%
    05:00 +8°C° 0 mm 5 mps 751 mmHg 83%
    06:00 +8°C° 0 mm 5 mps 751 mmHg 82%
    07:00 +9°C° 0 mm 5 mps 751 mmHg 82%
    08:00 +11°C° 0 mm 4 mps 752 mmHg 79%
    09:00 +11°C° 0 mm 4 mps 752 mmHg 76%
    10:00 +12°C° 0 mm 4 mps 753 mmHg 73%
    11:00 +13°C° 0 mm 3 mps 753 mmHg 69%
    12:00 +14°C° 0 mm 3 mps 753 mmHg 66%
    13:00 +14°C° 0 mm 3 mps 753 mmHg 63%
    14:00 +14°C° 0 mm 3 mps 753 mmHg 64%
    15:00 +14°C° 0 mm 3 mps 753 mmHg 64%
    16:00 +14°C° 0 mm 4 mps 753 mmHg 65%
    17:00 +14°C° 0 mm 3 mps 753 mmHg 68%
    18:00 +13°C° 0 mm 3 mps 753 mmHg 71%
    19:00 +12°C° 0 mm 3 mps 754 mmHg 75%
    20:00 +12°C° 0 mm 3 mps 754 mmHg 76%
    21:00 +11°C° 0 mm 3 mps 754 mmHg 78%
    22:00 +11°C° 0 mm 3 mps 754 mmHg 80%
    23:00 +10°C° 0 mm 3 mps 754 mmHg 82%

    29 April, Monday

    Time Temperature Precipitation Wind Pressure Humidity
    00:00 +10°C° 0 mm 3 mps 754 mmHg 84%
    01:00 +9°C° 0 mm 3 mps 754 mmHg 87%
    02:00 +9°C° 0 mm 3 mps 754 mmHg 88%
    03:00 +8°C° 0 mm 4 mps 754 mmHg 89%
    04:00 +10°C° 0 mm 4 mps 753 mmHg 90%
    05:00 +10°C° 0.1 mm 4 mps 753 mmHg 90%
    06:00 +10°C° 0.1 mm 4 mps 753 mmHg 89%
    07:00 +10°C° 0.1 mm 5 mps 753 mmHg 89%
    08:00 +11°C° 0.2 mm 4 mps 753 mmHg 88%
    09:00 +12°C° 0.2 mm 4 mps 753 mmHg 88%
    10:00 +12°C° 0.2 mm 4 mps 753 mmHg 87%
    11:00 +14°C° 0.1 mm 4 mps 752 mmHg 86%
    12:00 +15°C° 0.1 mm 4 mps 752 mmHg 84%
    13:00 +17°C° 0.1 mm 3 mps 752 mmHg 82%
    14:00 +18°C° 0.5 mm 4 mps 752 mmHg 76%
    15:00 +19°C° 0.5 mm 4 mps 752 mmHg 71%
    16:00 +21°C° 0.5 mm 4 mps 751 mmHg 65%
    17:00 +19°C° 0.2 mm 4 mps 751 mmHg 72%
    18:00 +17°C° 0.2 mm 3 mps 752 mmHg 79%
    19:00 +16°C° 0.2 mm 3 mps 752 mmHg 87%
    20:00 +14°C° 0 mm 3 mps 752 mmHg 89%
    21:00 +13°C° 0 mm 3 mps 752 mmHg 91%
    22:00 +12°C° 0 mm 3 mps 752 mmHg 93%
    23:00 +11°C° 0 mm 3 mps 752 mmHg 93%
    Show more